Regional Weather Roundup
Issued by NWS Sterling, VA

Home | Current Version | Previous Version | Graphics & Text | Print | Product List | Glossary On
Versions: 1 2 3 4 5 6 7 8 9 10 11 12 13 14 15 16 17 18 19 20 21 22 23 24 25 26 27 28 29 30 31 32 33 34 35 36 37 38 39 40 41 42 43 44 45 46 47 48 49 50
983
ASUS41 KLWX 192211
RWRLWX

REGIONAL WEATHER ROUNDUP
NATIONAL WEATHER SERVICE BALTIMORE MD/WASHINGTON DC
500 PM EST SUN FEB 19 2017

Note: "FAIR" indicates few or no clouds below 12,000 feet
with no significant weather and/or obstructions to visibility.
 TC=TEMPERATURE CELSIUS

 * =Non NWS site. Station does not report precipitation (e.g. rain,
    snow, etc.), thunder, or fog.

DCZ001-MDZ009-015-VAZ040>042-051-053>054-192300-
WASHINGTON METRO

CITY           SKY/WX    TMP DP  RH WIND       PRES   REMARKS
WASHINGTON NAT PTCLDY    70  39  32 W17       29.94R
DULLES         CLEAR     66  37  34 NW15      29.95R
ANDREWS AFB    CLEAR     67  39  35 W15       29.92R
FT BELVOIR     CLEAR     69  38  31 NW10      29.93S
QUANTICO       CLEAR     72  41  32 NW12      29.94R
COLLEGE PARK*  CLEAR     66  39  37 W9G17     29.93R
LEESBURG*      CLEAR     64  45  48 NW12G18   29.96S
MANASSAS*      CLEAR     69  38  32 NW18      29.95R
GAITHERSBURG*  CLEAR     64  39  39 W13G18    29.98R

$$

MDZ006>007-011-014-192300-
BALTIMORE METRO

CITY           SKY/WX    TMP DP  RH WIND       PRES   REMARKS
BWI AIRPORT    PTCLDY    67  39  35 NW13G24   29.91R
MD SCIENCE CTR   N/A     69  37  30 MISG      29.91R
MARTIN STATE   CLEAR     70  39  32 W17       29.91R
ANNAPOLIS      CLEAR     68  38  33 NW8       29.90S
FORT MEADE*    CLEAR     66  37  34 NW12      29.94S

$$

MDZ012-015-019>023-192300-
MARYLAND EASTERN SHORE

CITY           SKY/WX    TMP DP  RH WIND       PRES   REMARKS
OCEAN CITY     CLEAR     68  42  38 NW9       29.90R
SALISBURY      CLEAR     67  44  43 NW6       29.91R
BAY BRIDGE AP* CLEAR     63  41  45 W7        29.91R
CAMBRIDGE*     CLEAR     64  43  45 W3        29.92R
EASTON*        CLEAR     68  39  34 NW6       29.95R

$$

MDZ017>025-192300-
SOUTHERN MARYLAND

CITY           SKY/WX    TMP DP  RH WIND       PRES   REMARKS
PATUXENT RIVER CLEAR     65  45  48 NW8       29.92R
ST INIGOES     CLEAR     67  44  43 W7        29.92R
LEONARDTOWN*   CLEAR     68  37  32 NW3       29.94R

$$

MDZ003>005-192300-
NORTH CENTRAL MARYLAND

CITY           SKY/WX    TMP DP  RH WIND       PRES   REMARKS
FREDERICK*     CLEAR     64  45  48 W6        29.97R
HAGERSTOWN APT CLEAR     67  42  40 W9        29.93R
WESTMINSTER*   CLEAR     66  43  42 W10       29.92S

$$

MDZ501>502-192300-
WESTERN MARYLAND

CITY           SKY/WX    TMP DP  RH WIND       PRES   REMARKS
OAKLAND*       CLOUDY    43  41  93 W8        30.04R
CUMBERLAND*    CLEAR     61  39  44 W16       30.04R

$$

VAZ025>031-192300-
SHENANDOAH VALLEY

CITY           SKY/WX    TMP DP  RH WIND       PRES   REMARKS
WINCHESTER*    CLEAR     61  37  41 W10       29.97S
FRONT ROYAL*   CLEAR     64  37  36 W8        29.97R
LURAY*         CLEAR     64  41  42 W8        29.99R
NEW MARKET*    CLEAR     64  36  34 W6        29.99R
STAUNTON*      SUNNY     64  37  37 NW12      30.02R
WAYNESBORO*    SUNNY     65  32  28 NW8       29.99R

$$

WVZ021-048>050-054>055-192300-
EASTERN WEST VIRGINIA PANHANDLE

CITY           SKY/WX    TMP DP  RH WIND       PRES   REMARKS
MARTINSBURG    CLEAR     63  40  42 W16       29.95S
PETERSBURG*    CLEAR     60  42  51 W6        30.03S

$$

VAZ036>039-050-192300-
CENTRAL FOOTHILLS

CITY           SKY/WX    TMP DP  RH WIND       PRES   REMARKS
CHARLOTTESVILL CLEAR     72  39  30 NW5G17    29.95R
CULPEPER*      CLEAR     71  38  30 NW8       29.96R
ORANGE*        CLEAR     70  36  28 CALM      29.96R
GORDONSVILLE*  CLEAR     72  36  27 N6        29.94R
WARRENTON*     CLEAR     71  29  21 NW9       29.94R

$$

VAZ055>057-192300-
NORTH AND CENTRAL PIEDMONT

CITY           SKY/WX    TMP DP  RH WIND       PRES   REMARKS
FREDERICKSBRG* CLEAR     72  41  33 NW10G16   29.92S
STAFFORD*      CLEAR     70  38  31 NW10      29.97S

$$

NCZ024-NYZ072-PAZ021-071-VAZ022-071-192300-
OTHER REGIONAL OBSERVATIONS

CITY           SKY/WX    TMP DP  RH WIND       PRES   REMARKS
NEW YORK CITY  CLEAR     64  28  25 W8G18     29.86R
PHILADELPHIA   PTCLDY    68  32  26 W13       29.87R
PITTSBURGH     MOSUNNY   63  36  36 W16       30.00R
ROANOKE        MOSUNNY   61  41  47 NW21      30.07R
RICHMOND       PTCLDY    71  45  39 W7        29.93R
RALEIGH        MOSUNNY   70  42  36 NW6       29.98R

$$

ANZ530>537-192300-
MARINE OBSERVATIONS

STATION/POSITION TIME  TEMP    WIND        PRES
                       AIR SEA DIR/SP/G
                 (UTC) (F)     (DEG/KT/KT) (MB)
THOMAS PT LIGHT  2200   67 41  300/ 11/ 12   N/A
BALT KEY BRIDGE  2148   67     280/ 16/ 18 1012.3R
COVE POINT       2148   62      30/  4/  9 1013.9R
LEWISETTA        2148   67 45  360/  4/  6 1013.1R
SOLOMONS ISLAND  2148   66 41  330/  7/ 10   N/A
PINEY POINT      2148          320/  9/  9   N/A

$$





USA.gov is the U.S. government's official web portal to all federal, state and local government web resources and services.